Карточка аэропорта URMM

Внимание!
Информация на этой странице в стадии наполнения.
Если вы не увидели какой-то информации, или заметили неточность - пожалуйста сообщите нам!
Спасибо!
Команда RU-STAFF
Название аэропортаМинеральные Воды
Название аэропорта (англ.)Mineralnyye Vody
Превышение1047 ft. (319.1 m.)
Координаты44°13.608', 43°4.9799999999999'
Высота перехода7000 ft
Эшелон переходаFL80 (QNH >= 1013); FL90 (QNH 977-1012); FL100 (QNH < 977)
Коды ответчика1050-1057
Зона ОрВДРостов-на-Дону РПИ (URRV)
Данные METARURMM 200300Z VRB01MPS 9999 NSC 22/18 Q1016 R29/090070 NOSIG RMK QFE734/0978
Проноз погоды (TAF)URMM 200200Z 2003/2103 30003G08MPS 9999 BKN060 TX33/2012Z TN18/2003Z BECMG 2005/2006 10003G08MPS TEMPO 2009/2020 VRB06G13MPS 6000 -TSRA BKN016 BKN060CB BECMG 2020/2021 28005G12MPS TEMPO 2021/2103 32010G18MPS 6000 -TSRA BKN016 BKN030CB
NOTAMshow/hide NOTAM
AWOS   TABLE

Информация о ВПП

ВПП Длина ВПП (м.) Покрытие Курс ВПП Частота ILS
123900Бетон115111.7
303900Бетон295109.3

Диспетчерские позиции

Позывной Наименование органа УВД Частота
URMM_APPМинводы-Подход119.3
URMM_R_APPМинводы-Круг120.7
URMM_TWRМинводы-Старт128.0
URMM_GNDМинводы-Руление121.9



Спутниковое изображение